Terug naar catalogus

STARLINK-4171

ActiefCommunicatieVLEO
NORAD 52878·PAYLOAD·🇺🇸 United States

Gelanceerd Jun 17, 2022 vanaf Cape Canaveral Space Force Station

Loading…

Volgende Passages (komende 24 uur)

TLE

VersSource: CelesTrak SupGP

Epoch: Sep 15, 2026, 02:31 UTC

1 52878C 22062BA  26258.10534722 -.00024650  00000+0 -72841-3 0  2580
2 52878  53.1565 228.6045 0001300  90.7037  59.4583 15.34397207    10

Volg STARLINK-4171 in realtime met AllMySat

Download on the App Store